Temperature
20 19 19 19 18 18 18 18 17 17 17 17 17 17 17 17 17 17 17 17 16 16 16 16 16 16 16 16 16 16 16 16 16 16 16 16 16 16 16 16 16 16 16
19 19 19 19 18 18 18 17 17 17 17 17 16 16 16 16 16 16 16 16 16 16 16 16 16 16 16 16 16 16 16 16 16 16 16 16 16 16 16 16 16 16 16
19 19 19 18 18 18 18 17 17 17 17 16 16 16 16 16 16 16 16 16 16 16 16 16 16 16 16 16 16 16 16 16 16 16 16 16 16 16 16 16 16 16 16
19 18 18 18 18 18 17 17 17 17 16 16 16 16 16 16 16 15 15 15 15 15 15 15 15 15 15 15 15 15 15 15 15 15 16 16 15 15 15 15 15 16 16
19 18 18 18 17 17 17 17 16 16 16 16 16 16 16 15 15 15 15 15 15 15 15 15 15 15 15 15 15 15 15 15 15 15 15 15 15 15 15 15 15 15 15
18 18 18 18 17 17 17 16 16 16 16 16 16 16 15 15 15 15 15 15 15 15 15 15 15 15 15 15 15 15 15 15 15 15 15 15 15 15 15 15 15 15 15
18 18 18 17 17 17 17 16 16 16 16 16 16 15 15 15 15 15 15 15 15 15 15 15 15 14 14 15 15 15 14 14 15 14 14 15 15 15 15 15 15 15 15
18 18 17 17 17 17 16 16 16 16 16 16 15 15 15 15 15 15 15 15 15 15 15 14 14 14 14 14 14 14 14 14 14 14 14 15 14 14 14 14 14 14 14
18 17 17 17 17 16 16 16 16 16 16 16 15 15 15 15 15 15 14 14 14 15 15 14 14 14 14 14 14 14 14 14 14 14 14 14 14 14 14 14 14 14 14
17 17 17 16 16 16 16 16 16 16 16 15 15 15 15 15 15 14 14 14 14 14 14 14 14 14 14 14 14 14 14 14 14 14 14 14 14 14 14 14 14 14 14
17 17 16 16 16 16 16 16 16 15 15 15 15 15 15 14 14 14 14 14 14 14 14 14 14 14 14 14 14 14 14 14 14 14 14 14 14 14 14 14 14 14 14
17 16 16 16 16 16 16 16 15 15 15 15 15 15 14 14 14 14 14 14 14 14 14 14 14 14 14 14 13 13 13 13 13 13 13 14 14 14 14 14 14 14 14
16 16 16 16 16 16 15 15 15 15 14 14 14 14 14 14 14 14 14 14 13 13 14 13 13 13 13 13 13 13 13 13 13 13 13 13 13 13 13 13 13 13 13
16 16 16 15 15 15 15 15 14 14 14 14 14 14 14 13 13 13 13 13 13 13 13 13 13 13 13 13 13 13 13 13 12 12 12 13 13 13 13 13 13 13 13
16 15 15 15 15 15 15 14 14 14 14 14 13 13 13 13 13 13 13 13 13 13 13 12 12 12 12 12 12 12 12 12 12 12 12 12 12 12 12 12 12 12 12
15 15 15 15 15 14 14 14 14 14 14 13 13 13 13 13 13 13 12 12 12 12 12 12 12 12 12 11 11 11 11 11 11 11 11 12 12 12 12 12 12 12 12
15 14 14 14 14 14 14 14 14 13 13 13 13 13 13 12 12 12 12 12 12 12 11 11 11 11 11 11 11 11 11 11 11 11 11 11 11 11 11 11 11 12 12
14 14 14 14 14 14 13 13 13 13 13 13 13 12 12 12 12 12 12 12 11 11 11 11 11 11 11 11 10 10 10 10 10 10 10 10 10 11 11 11 11 11 11
14 14 14 14 14 13 13 13 13 13 12 12 12 12 12 12 12 11 11 11 11 11 11 11 10 10 10 10 10 10 10 10 10 10 10 10 10 10 10 10 10 10 10
14 14 13 13 13 13 13 13 12 12 12 12 12 11 11 11 11 11 11 11 10 10 10 10 10 10 10 10 10 10 10 9 9 9 9 9 9 10 10 10 10 10 10
14 13 13 13 13 13 12 12 12 12 12 11 11 11 11 11 11 11 10 10 10 10 10 10 10 10 9 9 9 9 9 9 9 9 9 9 9 9 9 9 9 9 9
13 13 13 13 12 12 12 12 12 11 11 11 11 11 11 11 10 10 10 10 10 10 10 9 9 9 9 9 9 9 9 9 9 9 9 9 8 9 8 8 8 8 9
13 13 12 12 12 12 12 11 11 11 11 11 11 10 10 10 10 10 10 10 10 9 9 9 9 9 9 9 9 8 8 8 8 8 8 8 8 8 8 8 8 8 8
12 12 12 12 12 11 11 11 11 11 10 10 10 10 10 10 9 9 9 9 9 9 9 9 9 9 9 8 8 8 8 8 8 8 8 7 7 7 7 7 7 7 7
12 12 11 11 11 11 11 11 11 10 10 10 10 10 9 9 9 9 9 9 9 9 9 9 8 8 8 8 8 8 8 8 7 7 7 7 7 7 7 7 7 7 7
12 11 11 11 11 11 10 10 10 10 10 10 9 9 9 9 9 9 9 9 8 8 8 8 8 8 8 8 7 7 7 7 7 7 7 7 7 7 7 7 6 6 6
Wind_Speed
5 4 3 2 2 1 1 1 1 1 1 1 2 1 1 1 1 1 2 2 2 2 2 2 2 2 1 2 1 1 1 2 3 3 2 2 2 3 3 6 8 8 9
5 4 3 2 2 1 2 1 1 1 1 1 1 1 1 1 1 1 2 2 2 2 3 2 3 2 2 2 1 2 2 2 3 3 2 2 3 3 3 4 5 7 8
4 4 3 2 2 2 2 2 1 1 1 1 1 1 2 2 2 2 2 2 2 3 2 2 3 2 2 2 2 2 3 3 2 2 3 2 3 2 1 2 3 3 6
5 4 4 3 3 3 3 2 2 1 1 1 1 2 2 2 2 2 3 3 3 3 3 3 3 2 3 3 3 3 3 2 2 2 3 2 2 2 1 2 2 3 4
4 4 4 3 3 2 2 2 2 2 1 2 2 2 2 2 3 3 3 3 3 4 4 3 3 3 4 3 3 3 2 2 2 2 3 2 3 2 2 3 3 3 4
4 3 3 3 2 2 2 2 2 2 2 2 2 3 3 4 5 4 3 3 3 3 4 4 4 4 5 5 5 4 3 3 3 3 4 5 5 5 3 3 3 2 3
4 3 3 3 3 3 3 2 3 3 3 3 4 3 4 5 5 5 4 3 3 4 4 4 4 4 4 3 5 5 5 6 6 5 6 7 7 6 5 5 4 4 6
3 3 3 3 3 3 2 3 4 3 3 4 4 4 4 5 5 5 5 3 3 4 4 4 4 5 5 4 4 4 5 6 7 6 7 8 8 7 7 7 7 6 5
2 2 3 4 3 3 3 4 4 3 3 4 3 4 4 5 5 5 4 2 3 5 5 4 4 5 7 6 4 5 6 7 8 8 9 10 10 10 7 4 4 4 4
2 2 2 2 3 4 4 4 3 3 3 3 3 3 3 4 5 5 4 2 3 4 4 4 6 6 7 6 4 5 7 7 6 6 6 7 7 8 8 7 7 6 4
1 1 2 2 3 3 3 3 2 2 2 3 3 3 3 4 4 5 4 2 3 4 4 4 5 8 8 8 6 5 8 7 5 5 5 5 5 5 5 6 6 7 6
1 2 2 3 3 2 2 2 2 2 2 3 3 3 3 3 4 5 6 5 5 4 5 4 5 7 7 7 5 6 7 5 3 4 4 5 5 5 5 5 7 8 8
1 2 3 3 2 2 2 2 1 1 2 3 3 3 4 4 4 6 7 7 6 4 4 6 7 6 5 5 6 7 5 2 2 3 5 6 5 5 4 4 4 5 6
2 2 2 2 3 3 2 2 2 2 2 3 3 3 3 3 4 4 4 4 4 4 4 5 5 5 3 4 5 4 2 2 2 4 5 5 4 4 3 3 3 3 3
1 3 2 2 2 3 3 2 3 3 4 3 3 3 3 4 6 5 3 3 3 3 2 2 2 3 3 3 3 3 3 2 2 3 4 4 4 4 4 3 2 2 3
1 3 2 2 2 2 3 3 4 3 4 3 4 3 3 5 7 6 5 5 4 2 1 1 2 2 3 3 3 3 3 2 3 3 3 3 4 4 4 3 2 2 3
2 3 3 2 3 3 2 2 3 4 5 4 4 4 4 6 6 6 5 4 2 1 1 1 2 2 3 2 2 3 3 3 3 2 3 4 4 4 4 3 2 2 2
2 3 3 3 3 3 3 3 2 2 3 4 4 5 6 6 6 6 4 3 3 1 1 2 2 2 2 2 2 3 3 3 3 3 3 4 4 4 4 4 3 3 3
2 2 2 2 2 2 2 2 2 2 2 3 3 4 5 5 4 4 2 1 1 2 2 2 2 2 2 2 2 2 2 2 3 3 3 4 4 3 4 4 4 4 2
2 4 2 1 1 1 1 1 1 2 2 3 3 3 3 2 2 2 1 1 2 2 2 2 2 2 2 2 2 2 2 3 3 3 3 4 4 3 4 4 4 3 3
2 3 2 1 1 1 2 2 2 2 2 3 4 4 3 2 3 2 2 2 2 2 2 1 2 2 2 1 1 1 2 2 2 3 3 3 4 4 4 3 4 3 2
1 1 1 1 1 1 2 2 2 2 2 3 4 3 3 2 2 2 2 2 2 2 2 1 1 2 2 1 1 1 1 2 3 3 3 3 4 4 3 3 3 3 2
1 1 1 1 1 1 2 2 2 2 2 2 2 2 1 2 2 2 2 2 2 1 1 1 1 2 2 1 1 0 1 3 3 3 3 4 4 4 3 3 4 3 2
1 1 1 1 1 1 2 2 2 1 1 2 2 2 1 1 1 2 2 2 2 2 2 1 1 1 2 1 1 1 1 2 3 3 3 3 3 3 3 3 2 2 2
1 1 2 2 1 1 2 2 1 1 1 1 1 1 1 1 1 1 1 2 2 2 2 2 1 1 2 2 2 3 4 3 3 3 3 3 3 3 3 2 2 2 1
1 1 1 1 1 1 1 1 1 0 0 1 1 1 1 1 1 1 2 1 1 1 2 2 2 3 3 3 3 3 3 4 4 4 2 2 2 1 2 2 2 2 1
Wind_Direction
168 167 160 166 172 161 187 241 272 297 312 326 321 326 323 326 329 339 325 337 335 321 322 325 300 291 310 305 263 194 179 163 194 253 244 257 206 223 216 213 217 218 224
175 166 167 170 166 187 240 249 254 288 290 286 297 307 297 312 309 303 309 328 318 312 309 318 304 299 301 297 288 247 229 206 188 231 258 246 233 230 218 220 228 228 231
167 165 172 188 189 211 246 256 260 268 284 303 310 279 279 290 295 283 275 286 288 285 287 289 289 284 287 286 269 260 247 233 200 205 240 235 240 242 220 244 239 238 240
162 167 188 208 212 218 234 247 249 247 243 268 272 258 256 267 278 283 280 277 281 282 281 276 277 263 267 271 273 263 251 233 213 211 239 244 243 249 194 227 261 252 243
160 169 193 204 209 216 233 252 258 256 260 254 273 275 267 269 278 289 283 283 277 280 282 276 271 273 276 269 271 256 245 236 226 230 245 251 251 246 228 222 237 250 248
159 182 189 188 197 220 235 243 256 265 271 265 263 262 271 283 291 285 278 274 275 274 280 279 276 272 280 278 277 269 239 228 232 232 244 245 248 241 232 228 227 234 259
161 182 185 190 201 221 234 240 247 255 264 267 265 259 261 273 282 278 272 264 266 268 269 271 281 286 277 276 281 279 267 252 230 221 235 244 245 237 228 233 229 226 239
173 191 198 197 216 229 233 244 250 252 257 258 261 257 262 284 284 274 276 267 266 269 265 259 261 276 276 260 269 279 274 268 251 239 235 244 245 237 224 227 229 238 254
183 218 224 212 215 227 236 246 246 251 261 262 261 253 256 281 285 278 274 271 274 278 276 272 262 268 274 263 256 270 279 282 270 256 249 251 250 246 228 216 223 226 254
252 253 250 231 221 230 240 248 252 253 258 266 272 259 252 265 282 280 271 264 275 284 287 280 270 275 281 270 248 254 269 276 284 291 283 277 265 253 234 217 213 218 235
275 306 297 276 253 241 245 257 268 268 282 279 275 275 269 267 281 284 276 262 259 270 279 285 289 290 283 275 256 249 257 265 279 282 284 283 280 264 246 227 212 209 218
347 347 319 300 285 288 256 263 277 283 290 287 281 286 285 280 277 280 275 267 264 252 266 277 285 291 291 286 273 271 271 271 279 288 288 286 281 272 259 244 232 224 225
11 334 317 315 304 298 268 265 278 280 279 283 279 280 293 299 295 291 286 276 273 264 269 283 294 296 295 293 283 278 276 278 287 292 285 279 273 269 264 256 253 242 244
355 326 329 332 322 320 293 252 238 243 254 274 276 277 289 302 307 312 306 294 287 291 293 298 301 308 307 297 301 300 281 266 264 277 287 286 284 281 272 253 255 261 263
330 311 306 305 302 306 297 265 248 238 225 225 248 256 273 289 289 290 290 297 289 285 308 335 352 349 344 332 322 315 312 321 301 294 299 305 306 300 289 273 257 250 245
313 312 309 304 300 300 303 313 320 309 295 261 245 247 260 269 290 302 300 297 298 310 70 326 303 302 306 311 313 316 322 316 305 307 309 307 305 302 298 296 273 250 258
248 266 274 276 278 283 286 278 300 327 330 321 301 285 282 295 305 313 316 323 330 106 116 273 284 293 296 299 299 296 298 301 305 315 316 315 314 310 307 304 298 274 263
267 264 257 250 254 264 271 269 253 262 303 310 304 298 305 309 314 320 332 21 19 26 273 271 279 289 295 300 303 307 312 322 330 329 325 325 321 315 311 307 294 276 268
279 274 267 256 253 262 276 277 267 264 274 288 308 314 315 317 324 328 355 18 303 293 282 288 295 299 302 311 316 317 316 320 325 323 321 318 318 319 316 309 302 290 268
282 283 283 274 282 288 295 282 269 269 273 280 284 286 304 329 325 322 311 275 276 281 282 288 297 303 305 313 321 328 332 331 327 322 318 317 315 312 312 314 310 298 270
281 291 299 317 286 268 264 257 256 266 273 274 274 273 258 249 258 267 270 263 260 262 265 271 291 307 304 304 310 325 330 324 320 313 312 314 315 313 311 312 310 302 291
278 273 268 254 260 265 267 261 264 272 275 280 291 300 281 268 266 267 274 281 276 270 259 245 303 307 296 292 291 309 321 315 310 307 310 313 314 311 311 313 312 308 300
286 290 282 270 264 285 307 303 291 288 295 298 303 315 306 290 296 292 294 302 311 310 328 360 348 325 326 336 339 283 287 286 284 282 295 303 306 308 308 309 311 312 306
282 278 265 275 278 282 289 287 285 289 296 304 319 321 315 308 321 330 331 333 348 357 4 16 353 312 311 307 300 299 288 287 291 294 289 292 299 300 302 310 314 323 323
300 276 268 268 273 276 284 285 284 292 314 320 331 336 324 327 336 344 344 353 7 5 359 360 354 345 332 325 320 323 325 323 316 314 305 281 286 292 297 300 303 315 332
328 302 276 278 280 282 277 275 279 297 314 319 335 329 329 335 337 349 354 2 5 344 347 350 345 344 338 330 332 341 340 336 329 318 307 281 283 285 303 303 311 317 314
Height
1525 1525 1525 1524 1524 1524 1523 1522 1521 1520 1519 1518 1517 1516 1514 1513 1512 1511 1510 1509 1508 1507 1506 1505 1504 1503 1502 1502 1501 1501 1501 1501 1500 1501 1501 1501 1502 1502 1502 1502 1503 1503 1503
1523 1523 1523 1523 1523 1522 1521 1520 1520 1518 1517 1516 1515 1514 1513 1512 1510 1509 1508 1507 1506 1505 1504 1503 1502 1501 1500 1500 1499 1499 1499 1499 1498 1498 1498 1499 1499 1499 1499 1499 1500 1500 1500
1522 1521 1521 1522 1521 1520 1520 1519 1518 1517 1516 1514 1513 1512 1511 1510 1508 1507 1506 1505 1504 1503 1502 1501 1500 1499 1498 1497 1497 1496 1496 1496 1496 1495 1495 1495 1496 1496 1495 1496 1496 1496 1496
1520 1520 1520 1520 1519 1519 1518 1517 1516 1515 1514 1513 1511 1510 1509 1508 1507 1505 1504 1503 1502 1501 1500 1499 1498 1497 1496 1495 1494 1494 1493 1493 1493 1492 1492 1492 1492 1492 1492 1492 1492 1492 1493
1519 1519 1518 1518 1517 1517 1516 1515 1514 1513 1512 1511 1510 1508 1507 1506 1504 1503 1502 1500 1499 1498 1497 1496 1495 1494 1493 1493 1492 1491 1491 1490 1489 1488 1488 1488 1488 1488 1488 1489 1489 1489 1489
1518 1517 1516 1516 1515 1514 1513 1513 1512 1511 1510 1509 1507 1506 1505 1503 1502 1501 1499 1498 1496 1495 1494 1493 1492 1491 1490 1490 1489 1488 1488 1487 1486 1485 1485 1484 1484 1485 1485 1485 1485 1484 1484
1516 1515 1515 1514 1513 1512 1511 1510 1509 1508 1507 1506 1505 1504 1502 1501 1499 1498 1497 1495 1494 1492 1491 1490 1489 1487 1487 1486 1485 1484 1484 1483 1483 1482 1481 1480 1480 1480 1481 1481 1480 1480 1480
1514 1513 1513 1512 1511 1510 1509 1508 1507 1506 1504 1503 1502 1501 1499 1498 1496 1495 1494 1492 1491 1489 1488 1487 1485 1484 1483 1482 1481 1480 1479 1479 1478 1478 1477 1476 1476 1476 1476 1476 1476 1476 1476
1512 1512 1511 1510 1509 1508 1507 1506 1505 1503 1502 1501 1499 1498 1496 1494 1493 1492 1490 1489 1487 1486 1485 1483 1482 1480 1479 1478 1477 1476 1475 1474 1474 1473 1472 1471 1471 1470 1470 1471 1470 1470 1469
1510 1510 1509 1508 1507 1506 1505 1504 1502 1501 1499 1498 1497 1495 1493 1491 1490 1489 1487 1485 1483 1482 1481 1479 1478 1477 1475 1474 1473 1472 1470 1469 1469 1468 1467 1466 1465 1465 1465 1465 1464 1464 1464
1508 1508 1507 1506 1505 1504 1503 1502 1500 1499 1497 1495 1494 1492 1490 1489 1487 1485 1483 1481 1479 1478 1477 1475 1474 1473 1472 1470 1469 1468 1466 1466 1464 1463 1462 1461 1460 1460 1459 1459 1459 1459 1459
1506 1505 1504 1503 1503 1501 1500 1499 1497 1496 1494 1492 1490 1488 1487 1485 1483 1482 1480 1478 1476 1474 1473 1472 1470 1469 1468 1466 1465 1463 1463 1462 1460 1459 1457 1456 1455 1454 1454 1454 1454 1454 1453
1504 1503 1502 1501 1500 1499 1497 1496 1494 1493 1491 1489 1487 1485 1483 1481 1480 1478 1476 1474 1472 1471 1469 1468 1467 1465 1464 1462 1461 1460 1459 1457 1456 1455 1453 1452 1451 1450 1450 1449 1448 1448 1448
1501 1500 1499 1498 1497 1496 1494 1493 1491 1490 1488 1486 1484 1482 1480 1478 1476 1474 1472 1470 1468 1467 1466 1464 1463 1461 1459 1458 1456 1455 1454 1453 1452 1450 1449 1447 1446 1446 1445 1444 1444 1443 1443
1499 1498 1497 1495 1494 1493 1492 1490 1488 1487 1485 1484 1481 1480 1477 1475 1473 1472 1469 1467 1465 1464 1462 1460 1459 1457 1455 1454 1452 1451 1451 1449 1448 1447 1445 1444 1442 1441 1441 1440 1440 1439 1439
1496 1495 1493 1492 1491 1490 1489 1487 1486 1484 1483 1481 1479 1477 1475 1473 1471 1468 1466 1464 1462 1461 1459 1456 1455 1453 1452 1451 1449 1448 1447 1446 1445 1443 1442 1440 1439 1438 1437 1436 1436 1435 1435
1494 1493 1491 1490 1489 1487 1486 1484 1482 1481 1480 1478 1476 1474 1473 1470 1468 1465 1463 1461 1459 1458 1456 1454 1453 1451 1449 1448 1447 1445 1444 1443 1441 1440 1439 1437 1436 1435 1434 1432 1432 1431 1431
1491 1490 1489 1488 1486 1485 1483 1481 1480 1478 1476 1474 1473 1471 1469 1467 1465 1462 1461 1459 1456 1455 1453 1452 1450 1449 1447 1446 1444 1443 1441 1440 1438 1437 1436 1434 1433 1432 1430 1429 1428 1427 1427
1488 1487 1486 1485 1483 1481 1480 1478 1477 1475 1473 1471 1470 1468 1466 1464 1462 1460 1458 1456 1454 1452 1451 1449 1448 1446 1445 1443 1442 1440 1438 1437 1435 1434 1433 1431 1430 1428 1427 1425 1424 1423 1423
1485 1484 1483 1481 1480 1478 1477 1475 1474 1472 1470 1468 1466 1465 1463 1461 1458 1457 1455 1454 1452 1450 1449 1447 1446 1444 1443 1441 1439 1437 1436 1434 1433 1431 1430 1428 1427 1425 1423 1422 1421 1420 1419
1482 1481 1480 1478 1477 1476 1474 1472 1471 1469 1467 1466 1464 1462 1460 1458 1456 1454 1452 1451 1449 1448 1446 1445 1443 1442 1440 1438 1436 1434 1433 1431 1430 1428 1426 1425 1423 1421 1420 1418 1417 1416 1415
1480 1478 1477 1475 1474 1473 1471 1470 1468 1466 1465 1463 1461 1459 1457 1455 1453 1451 1450 1448 1447 1446 1444 1443 1441 1439 1438 1435 1434 1432 1430 1428 1427 1425 1423 1422 1420 1418 1416 1415 1414 1413 1412
1477 1475 1474 1473 1471 1470 1468 1467 1465 1463 1462 1460 1458 1456 1454 1452 1450 1449 1447 1446 1445 1443 1442 1440 1439 1437 1435 1433 1431 1430 1428 1426 1424 1423 1421 1419 1417 1415 1414 1412 1411 1410 1409
1474 1473 1472 1470 1469 1467 1466 1464 1462 1461 1459 1457 1455 1453 1452 1450 1448 1447 1445 1443 1442 1440 1439 1437 1436 1434 1432 1430 1428 1427 1425 1423 1422 1420 1418 1416 1414 1413 1412 1411 1409 1408 1408
1472 1471 1469 1468 1466 1465 1463 1461 1459 1458 1456 1454 1452 1451 1449 1448 1446 1444 1443 1441 1439 1438 1436 1435 1433 1431 1429 1427 1425 1423 1422 1421 1419 1417 1415 1413 1412 1411 1410 1409 1408 1407 1406
1470 1468 1467 1465 1464 1462 1460 1459 1457 1455 1453 1452 1450 1448 1446 1445 1444 1442 1440 1439 1437 1435 1434 1432 1430 1428 1426 1424 1422 1420 1419 1417 1415 1414 1412 1411 1410 1409 1408 1407 1406 1405 1404